Location: Bacharowice
(49.9333°N, 19.5833°E)
Time: 13:07:30
(UTC+00:00)

SOZ - Pass Details

Date: 11 May 2021
Orbit: 305 x 16716 km, 52.0° (Epoch: 22 June)

Event Time Altitude Azimuth Distance (km) Brightness Sun altitude
Rises 19:10:16 0° 247° (WSW) 3,064 9.5 -8.0°
Reaches altitude 10° 19:13:08 10° 246° (WSW) 1,552 8.0 -8.4°
Maximum altitude 19:15:53 77° 161° (SSE) 331 4.1 -8.7°
Drops below altitude 10° 19:18:02 10° 73° (ENE) 1,216 6.8 -8.9°
Sets 19:19:58 0° 72° (ENE) 2,253 8.2 -9.2°
